This is the latest recevied weather packets stored in our database for station/object F1AGU-13. If no packets are shown the sender has not sent any weather packets the latest 10 day(s).
| Time | Temp. | Humidity | Pressure | Rain* | Wind** | Luminosity | Snow |
|---|---|---|---|---|---|---|---|
| 1777808716 | 15° C | 62% | 1017.5 hPa | 0 mm | - | - | - |
| 1777808116 | 15° C | 63% | 1017.1 hPa | 0 mm | - | - | - |
| 1777807516 | 14.44° C | 60% | 1017.1 hPa | 0 mm | - | - | - |
| 1777806916 | 14.44° C | 62% | 1017 hPa | 0 mm | - | - | - |
| 1777806316 | 14.44° C | 62% | 1017.1 hPa | 0 mm | - | - | - |
| 1777805716 | 14.44° C | 63% | 1017.2 hPa | 0 mm | - | - | - |
| 1777805116 | 14.44° C | 61% | 1017.2 hPa | 0 mm | - | - | - |
| 1777804516 | 15° C | 60% | 1017.4 hPa | 0 mm | - | - | - |
| 1777803916 | 15.56° C | 53% | 1017.2 hPa | 0 mm | - | - | - |
| 1777803316 | 15.56° C | 54% | 1017.2 hPa | 0 mm | - | - | - |
| 1777802716 | 15.56° C | 49% | 1017.1 hPa | 0 mm | - | - | - |
| 1777802116 | 15.56° C | 50% | 1017.2 hPa | 0 mm | - | - | - |
| 1777801516 | 15° C | 58% | 1017.2 hPa | 0 mm | - | - | - |
| 1777800916 | 15° C | 54% | 1017 hPa | 0 mm | - | - | - |
| 1777800316 | 16.11° C | 53% | 1017.1 hPa | 0 mm | - | - | - |
| 1777799716 | 16.11° C | 52% | 1017 hPa | 0 mm | - | - | - |
| 1777799115 | 16.11° C | 59% | 1017.2 hPa | 0 mm | - | - | - |
| 1777798516 | 16.11° C | 53% | 1017.1 hPa | 0 mm | - | - | - |
| 1777797915 | 16.11° C | 58% | 1017.2 hPa | 0 mm | - | - | - |
| 1777797316 | 16.11° C | 50% | 1017.1 hPa | 0 mm | - | - | - |
| 1777796715 | 16.11° C | 44% | 1017.1 hPa | 0 mm | - | - | - |
| 1777796115 | 16.11° C | 43% | 1017.2 hPa | 0 mm | - | - | - |
| 1777795517 | 16.11° C | 45% | 1017.2 hPa | 0 mm | - | - | - |
| 1777794917 | 15.56° C | 43% | 1017.1 hPa | 0 mm | - | - | - |
| 1777794317 | 15° C | 52% | 1017 hPa | 0 mm | - | - | - |
* Rain latest hour (hover to see other rain measurements)
** Current wind speed in m/s (hover to see current wind gust speed)